Theta_e
307 310 309 302 301 303 297 294 294 297 302 310 314 317 317 320 325 327 330 333 330 332 336 337 336 345 345 343 346 350 347 343
301 303 309 303 306 299 296 292 290 295 298 301 308 313 316 322 322 326 331 328 327 329 330 333 339 349 349 349 347 347 345 345
297 296 298 304 301 299 298 295 293 291 296 306 310 313 314 320 324 325 327 330 329 327 338 346 347 346 345 344 342 340 341 341
294 295 299 304 302 301 297 295 293 294 297 308 313 314 316 317 323 325 328 330 328 331 342 343 342 343 340 340 340 338 337 336
291 293 295 293 299 299 298 298 295 295 298 313 314 316 318 317 321 327 328 335 339 338 339 341 341 340 339 336 334 335 337 338
289 292 295 295 301 300 298 295 295 298 301 304 314 315 317 319 323 329 334 337 336 336 337 338 338 337 335 334 334 336 337 337
292 294 296 297 300 300 299 298 298 301 301 308 309 316 317 319 324 331 333 334 335 334 334 335 336 337 334 335 335 337 336 334
290 295 296 298 301 302 301 302 301 301 302 307 315 316 317 319 327 331 332 335 336 334 334 335 336 335 334 336 335 336 333 331
290 294 296 293 299 300 302 303 303 302 306 314 314 316 317 320 329 331 333 336 335 334 334 334 334 334 335 336 335 333 332 331
291 292 287 297 300 303 304 306 309 310 311 316 317 317 317 326 331 333 335 336 336 333 333 335 335 334 336 335 334 333 331 331
291 289 293 298 308 307 304 303 311 313 315 321 322 322 320 324 335 337 337 338 338 336 336 337 336 336 336 333 333 332 329 328
289 289 289 297 311 316 313 300 312 316 316 321 320 311 315 322 337 338 339 339 338 337 337 338 336 336 334 331 330 327 324 322
292 290 295 301 314 315 299 301 312 318 319 321 316 316 324 328 334 340 340 339 339 338 337 337 336 335 331 328 326 324 321 320
298 294 294 314 313 303 306 313 316 319 319 322 324 326 328 332 332 337 337 337 338 336 335 335 334 332 327 325 322 320 318 316
302 302 310 314 312 315 315 313 315 320 325 324 323 325 328 329 332 334 336 337 338 335 330 329 329 329 324 320 319 318 316 314
303 306 309 312 315 316 319 317 320 322 322 324 322 328 329 330 330 330 332 331 330 328 326 323 324 324 322 319 318 316 314 313
303 306 308 311 314 315 319 321 323 325 326 326 328 328 327 325 324 326 327 327 328 325 322 318 319 317 316 316 315 312 310 308
302 308 308 310 316 321 320 321 323 324 328 329 330 328 327 323 323 323 323 324 322 320 317 314 313 311 311 312 311 308 307 307
308 312 314 316 317 320 321 323 325 324 329 329 329 328 325 322 322 319 321 321 319 317 314 311 309 309 309 309 309 308 307 308
Wind_Speed
5 5 8 3 4 6 8 3 2 3 8 12 5 7 8 5 5 5 5 3 5 5 5 7 5 5 2 7 5 6 11 14
2 4 4 4 4 3 3 4 5 5 6 9 5 8 5 5 7 5 2 6 6 5 5 5 5 5 7 9 8 10 10 6
3 5 9 2 0 6 5 5 7 2 8 9 11 10 10 8 6 6 7 1 4 5 3 6 7 7 10 12 11 9 9 7
10 0 1 5 7 7 6 6 2 3 10 3 8 9 10 8 5 4 4 3 5 5 6 5 9 10 11 12 10 6 6 9
10 7 2 4 5 5 6 4 8 6 10 1 2 7 7 9 7 6 7 6 4 4 5 6 10 10 11 10 8 7 9 11
9 9 5 4 5 4 6 4 4 8 9 6 7 9 8 8 5 8 9 10 6 5 6 6 8 10 11 9 8 9 11 11
8 4 4 4 4 9 8 6 7 9 9 16 10 14 15 7 7 7 9 10 8 9 8 8 8 9 9 9 9 9 10 9
4 6 5 4 5 8 7 1 8 3 9 6 1 7 9 13 10 8 7 9 9 8 8 8 9 9 8 8 8 8 9 9
4 3 4 4 8 9 5 6 7 6 10 4 5 9 15 14 14 12 10 10 11 10 9 8 8 10 10 9 8 9 10 8
3 2 2 10 4 6 6 6 8 6 4 9 4 1 5 8 13 11 9 8 7 6 5 7 6 6 8 8 8 8 8 7
4 3 6 2 4 3 4 7 6 6 2 3 6 6 2 5 9 13 14 13 11 10 9 8 8 7 8 8 7 7 6 5
2 4 6 7 1 3 2 7 6 4 7 10 6 5 6 12 12 12 12 10 11 11 8 9 7 8 9 8 7 6 5 4
2 3 7 4 5 3 5 10 6 4 5 10 8 6 6 14 11 11 10 11 8 9 10 9 9 9 8 7 6 6 5 5
3 2 5 4 1 6 5 5 6 6 4 6 6 3 8 10 9 12 12 11 11 9 7 8 10 10 8 6 6 6 6 6
8 7 4 4 5 5 2 6 6 3 2 4 2 3 3 9 11 11 14 12 10 10 10 8 7 8 9 7 7 6 6 6
2 3 8 8 5 6 4 5 7 3 2 3 7 5 6 8 9 10 11 11 12 14 12 9 7 5 9 8 6 7 6 5
7 9 5 7 8 6 4 6 7 4 5 4 7 7 8 8 8 6 10 12 11 13 12 11 9 9 7 7 7 6 5 3
8 7 5 5 2 2 3 4 7 4 3 4 7 7 8 10 11 12 10 10 11 11 13 11 10 8 6 5 6 7 7 3
5 2 2 0 5 4 7 2 1 5 2 4 5 10 10 11 5 13 11 11 13 11 10 12 11 8 5 5 6 6 6 3
Wind_Direction
210 159 135 176 174 179 106 19 32 242 292 296 213 269 285 294 274 259 273 40 65 77 93 99 70 47 114 162 165 132 124 136
237 89 32 144 156 83 3 136 232 287 281 243 270 236 244 284 253 257 306 98 99 77 80 104 95 61 77 102 94 81 106 136
122 192 175 105 204 51 115 125 165 227 262 222 236 198 185 231 224 237 260 162 163 138 122 83 77 83 79 84 85 86 103 121
218 81 182 147 187 148 134 223 215 171 272 293 235 176 169 197 188 210 209 168 165 160 130 107 100 91 89 93 99 95 96 99
343 358 51 188 179 136 118 97 197 146 263 327 313 160 183 171 168 170 162 133 123 112 105 110 105 102 101 99 108 112 105 91
185 206 160 178 179 157 127 135 170 227 260 247 224 218 186 204 158 145 151 150 156 132 115 107 106 112 115 112 117 108 92 93
228 181 179 203 187 169 188 189 163 253 202 256 220 207 200 162 150 159 156 151 159 140 140 135 124 114 106 113 108 103 108 112
263 152 209 193 261 205 206 202 268 271 272 240 319 114 156 173 174 180 174 158 145 140 145 134 132 124 121 112 115 119 114 117
235 22 130 13 234 219 186 185 168 183 233 186 210 209 187 168 172 174 182 165 158 160 156 143 145 141 139 138 143 129 121 115
179 86 96 238 332 288 213 223 220 271 235 214 214 355 124 155 164 162 154 148 149 143 135 130 140 135 138 140 125 118 117 139
124 166 275 319 22 20 355 269 211 231 162 144 132 78 43 180 179 169 176 175 169 157 154 148 153 140 131 109 117 125 141 166
119 147 197 235 227 124 156 291 359 226 175 159 162 142 231 189 179 180 177 165 147 153 148 143 141 137 130 134 137 139 142 136
138 201 284 239 290 145 141 244 319 279 219 182 196 210 168 170 183 174 150 151 138 151 155 149 135 134 133 139 151 136 124 108
111 131 271 169 141 169 230 289 278 304 232 311 343 120 129 144 136 141 138 138 142 146 132 129 133 132 137 144 135 120 106 95
180 211 222 194 232 269 225 254 287 300 222 145 29 54 108 124 134 145 147 144 135 132 118 110 112 135 129 136 131 122 104 102
15 250 236 249 231 234 224 241 285 232 126 123 141 148 120 125 130 129 127 136 132 127 128 125 122 119 125 136 124 111 119 125
264 278 265 256 244 258 298 301 294 223 164 131 130 124 126 117 108 104 121 125 136 131 131 122 115 107 111 116 121 126 124 120
221 226 156 240 275 306 288 309 311 287 276 167 140 143 138 130 131 124 126 117 124 123 122 120 115 110 109 139 149 145 105 116
273 247 263 49 254 285 312 26 316 316 6 85 74 119 117 111 99 120 115 125 126 126 124 122 116 119 157 154 126 101 111 138